Weather History for Astoria, OR

Change the Weather History Date:

Thursday, September 11, 2014

  Actual Average Record
Temperature  
Mean Temperature 68 °F 59 °F  
Max Temperature 78 °F 69 °F 88 °F (2009)
Min Temperature 58 °F 50 °F 37 °F (1988)
Degree Days  
Heating Degree Days 0 6  
Month to date heating degree days 30 58  
Since 1 July heating degree days 188 339  
Cooling Degree Days 3 0  
Month to date cooling degree days 11 0  
Year to date cooling degree days 36 7  
Growing Degree Days 18 (Base 50)    
Moisture  
Dew Point 38 °F    
Average Humidity 35    
Maximum Humidity 51    
Minimum Humidity 18    
Precipitation  
Precipitation 0.00 in 0.06 in 1.20 in (1920)
Month to date precipitation 0.04 0.66  
Year to date precipitation 42.35 38.76  
Sea Level Pressure  
Sea Level Pressure 30.11 in    
Wind  
Wind Speed 15 mph (ENE)    
Max Wind Speed 26 mph    
Max Gust Speed 30 mph    
Visibility 10 miles    
Events      
T = Trace of Precipitation, MM = Missing Value Source: NWS Daily Summary

Daily Weather History Graph

Daily Weather History Graph

Search for Another Location

Airport:

Trip Planner

Search our weather history database for the weather conditions in past years. The results will help you decide how hot, cold, wet, or windy it might be!

Date:

Astronomy

Sep. 11, 2014 Rise Set
Actual Time 6:48 AM PDT 7:34 PM PDT
Civil Twilight 6:18 AM PDT 8:04 PM PDT
Nautical Twilight 5:42 AM PDT 8:40 PM PDT
Astronomical Twilight 5:04 AM PDT 9:18 PM PDT
Moon 9:03 PM PDT (9/11) 10:03 AM PDT (9/11)
Length of Visible Light 13h 46m
Length of Day
12h 45m
Waning Gibbous, 90% of the Moon is Illuminated
Sep 11
Waning Gibbous
Sep 15
Last Quarter
Sep 23
New
Oct 1
First Quarter
Oct 8
Full

Hourly Weather History & Observations

Time (PDT) Temp. Dew Point Humidity Pressure Visibility Wind Dir Wind Speed Gust Speed Precip Events Conditions
12:55 AM 62.1 °F 39.0 °F 43% 30.14 in 10.0 mi ENE 9.2 mph - N/A   Clear
1:55 AM 60.1 °F 37.9 °F 44% 30.14 in 10.0 mi East 11.5 mph - N/A   Clear
2:55 AM 60.1 °F 39.9 °F 47% 30.14 in 10.0 mi ENE 11.5 mph - N/A   Clear
3:55 AM 61.0 °F 39.9 °F 46% 30.13 in 10.0 mi ENE 17.3 mph - N/A   Clear
4:55 AM 61.0 °F 41.0 °F 48% 30.14 in 10.0 mi ENE 16.1 mph - N/A   Clear
5:55 AM 60.1 °F 42.1 °F 51% 30.15 in 10.0 mi ENE 10.4 mph - N/A   Clear
6:55 AM 60.1 °F 39.0 °F 46% 30.16 in 10.0 mi ENE 12.7 mph - N/A   Clear
7:55 AM 61.0 °F 39.0 °F 44% 30.17 in 10.0 mi ENE 16.1 mph - N/A   Clear
8:55 AM 63.0 °F 39.0 °F 41% 30.18 in 10.0 mi ENE 17.3 mph - N/A   Clear
9:55 AM 66.0 °F 39.0 °F 37% 30.18 in 10.0 mi ENE 18.4 mph - N/A   Clear
10:55 AM 69.1 °F 37.9 °F 32% 30.17 in 10.0 mi ENE 19.6 mph - 0.00 in   Clear
11:55 AM 71.1 °F 37.0 °F 29% 30.16 in 10.0 mi ENE 23.0 mph - N/A   Clear
12:55 PM 73.0 °F 35.1 °F 25% 30.15 in 10.0 mi ENE 21.9 mph 27.6 mph N/A   Clear
1:55 PM 75.9 °F 30.9 °F 19% 30.13 in 10.0 mi East 21.9 mph 29.9 mph N/A   Clear
2:55 PM 77.0 °F 30.9 °F 19% 30.11 in 10.0 mi ENE 17.3 mph - N/A   Clear
3:55 PM 77.0 °F 34.0 °F 21% 30.09 in 10.0 mi ENE 18.4 mph - N/A   Clear
4:55 PM 77.0 °F 32.0 °F 19% 30.07 in 10.0 mi ENE 13.8 mph - N/A   Clear
5:55 PM 75.9 °F 33.1 °F 21% 30.06 in 10.0 mi ENE 15.0 mph - N/A   Clear
6:55 PM 72.0 °F 39.0 °F 30% 30.05 in 10.0 mi NE 8.1 mph - N/A   Clear
7:55 PM 69.1 °F 39.9 °F 35% 30.04 in 10.0 mi NE 17.3 mph - N/A   Clear
8:55 PM 66.9 °F 41.0 °F 39% 30.05 in 10.0 mi NE 13.8 mph - N/A   Clear
9:55 PM 64.0 °F 44.1 °F 48% 30.04 in 10.0 mi NE 11.5 mph - N/A   Clear
10:55 PM 62.1 °F 37.0 °F 39% 30.04 in 10.0 mi East 9.2 mph - N/A   Clear
11:55 PM 59.0 °F 37.0 °F 44% 30.04 in 10.0 mi ENE 6.9 mph - N/A   Clear